Haleyville, AL

7:14 PM CDT on October 19, 2017 (GMT -0500)
Haleyville

Weather History for K1M4 - February, 2013

Change the Weather History Date:

Tuesday, February 26, 2013

  Actual Average (KJFX) Record (KJFX)
Temperature  
Mean Temperature 44 °F -  
Max Temperature 48 °F 60 °F 80 °F (1977)
Min Temperature 38 °F 33 °F 10 °F (1967)
Degree Days  
Heating Degree Days 22    
Moisture  
Dew Point 40 °F    
Average Humidity 84    
Maximum Humidity 100    
Minimum Humidity 66    
Precipitation  
Precipitation 0.29 in - - ()
Sea Level Pressure  
Sea Level Pressure 29.61 in    
Wind  
Wind Speed 14 mph (SSW)    
Max Wind Speed 20 mph    
Max Gust Speed 29 mph    
Visibility 8 miles    
Events Rain , Thunderstorm    
Averages and records for this station are not official NWS values.
T = Trace of Precipitation, MM = Missing Value Source: NWS Daily Summary

Daily Weather History Graph

Daily Weather History Graph

Search for Another Location

Airport or City:

Trip Planner

Search our weather history database for the weather conditions in past years. The results will help you decide how hot, cold, wet, or windy it might be!

Date:

Astronomy

Feb. 26, 2013 Rise Set
Actual Time 6:22 AM CST 5:44 PM CST
Civil Twilight 5:57 AM CST 6:09 PM CST
Nautical Twilight 5:28 AM CST 6:38 PM CST
Astronomical Twilight 4:59 AM CST 7:07 PM CST
Moon 6:54 PM CST (2/26) 6:29 AM CST (2/26)
Length of Visible Light 12h 12m
Length of Day
11h 21m
Full, 99% of the Moon is Illuminated
Feb 26
Full
Mar 4
Last Quarter
Mar 11
New
Mar 19
First Quarter
Mar 27
Full

Hourly Weather History & Observations

Time (CST) Temp. Windchill Dew Point Humidity Pressure Visibility Wind Dir Wind Speed Gust Speed Precip Events Conditions
12:18 AM 48.2 °F - 46.4 °F 93% 29.49 in 10.0 mi ESE 17.3 mph 28.8 mph 0.00 in Thunderstorm Overcast
12:26 AM 48.2 °F - 46.4 °F 93% 29.49 in 1.8 mi SE 13.8 mph 25.3 mph 0.08 in Rain , Thunderstorm Rain
12:28 AM 48.2 °F - 46.4 °F 93% 29.49 in 1.2 mi SE 13.8 mph 25.3 mph 0.10 in Rain Heavy Rain
12:31 AM 48.2 °F - 46.4 °F 93% 29.49 in 1.0 mi ESE 17.3 mph 25.3 mph 0.12 in Rain Heavy Rain
12:36 AM 48.2 °F - 46.4 °F 93% 29.50 in 1.0 mi SE 16.1 mph 25.3 mph 0.18 in Rain Heavy Rain
12:45 AM 48.2 °F - 46.4 °F 93% 29.49 in 1.5 mi SE 13.8 mph 20.7 mph 0.22 in Rain Heavy Rain
12:56 AM 47.8 °F - 46.9 °F 97% 29.55 in 3.0 mi SE 13.8 mph 23.0 mph 0.23 in Rain Light Rain
1:04 AM 48.2 °F - 46.4 °F 93% 29.50 in 2.5 mi SE 15.0 mph - 0.02 in Rain Rain
1:14 AM 48.2 °F - 48.2 °F 100% 29.50 in 2.0 mi SSE 16.1 mph 25.3 mph 0.03 in Rain Rain
1:24 AM 48.2 °F - 46.4 °F 93% 29.47 in 2.5 mi SE 13.8 mph 27.6 mph 0.04 in Rain Light Rain
1:31 AM 48.2 °F - 46.4 °F 93% 29.48 in 8.0 mi SE 12.7 mph 24.2 mph 0.04 in Rain Light Rain
1:56 AM 47.8 °F - 47.8 °F 100% 29.55 in 10.0 mi SE 13.8 mph 23.0 mph 0.04 in   Overcast
2:09 AM 48.2 °F - 48.2 °F 100% 29.49 in 10.0 mi SSE 12.7 mph 20.7 mph N/A   Overcast
2:56 AM 48.9 °F - 48.9 °F 100% 29.52 in 10.0 mi SE 15.0 mph 20.7 mph 0.01 in   Overcast
3:25 AM 48.2 °F - 48.2 °F 100% 29.46 in 8.0 mi SSE 15.0 mph 24.2 mph 0.00 in Rain Light Rain
3:56 AM 48.9 °F - 48.9 °F 100% 29.49 in 10.0 mi SSE 13.8 mph 21.9 mph 0.00 in   Overcast
4:56 AM 48.9 °F - 48.9 °F 100% 29.50 in 10.0 mi SSE 10.4 mph 24.2 mph 0.00 in Rain Light Rain
5:24 AM 48.2 °F - 48.2 °F 100% 29.47 in 9.0 mi South 10.4 mph 18.4 mph 0.01 in Rain Light Rain
5:43 AM 48.2 °F - 48.2 °F 100% 29.47 in 9.0 mi SSW 6.9 mph - 0.01 in Rain Light Rain
6:03 AM 48.2 °F - 48.2 °F 100% 29.47 in 4.0 mi SSW 9.2 mph - 0.00 in Rain Light Rain
6:06 AM 48.2 °F - 48.2 °F 100% 29.48 in 4.0 mi SSW 10.4 mph - 0.00 in Rain Light Rain
6:56 AM 48.9 °F - 48.9 °F 100% 29.53 in 10.0 mi SW 13.8 mph 19.6 mph 0.00 in   Overcast
7:16 AM 44.6 °F 38.4 °F 41.0 °F 87% 29.51 in 10.0 mi WSW 12.7 mph 20.7 mph N/A   Overcast
7:23 AM 44.6 °F 37.2 °F 39.2 °F 81% 29.52 in 10.0 mi West 17.3 mph 25.3 mph N/A   Overcast
7:56 AM 43.9 °F 39.3 °F 38.8 °F 82% 29.58 in 10.0 mi WSW 8.1 mph - N/A   Overcast
8:41 AM 44.6 °F 36.6 °F 35.6 °F 71% 29.56 in 10.0 mi WSW 19.6 mph 25.3 mph N/A   Mostly Cloudy
8:56 AM 43.9 °F 36.5 °F 36.0 °F 74% 29.60 in 10.0 mi WSW 16.1 mph 23.0 mph N/A   Scattered Clouds
9:10 AM 44.6 °F 37.4 °F 35.6 °F 71% 29.56 in 10.0 mi WSW 16.1 mph 21.9 mph N/A   Mostly Cloudy
9:47 AM 44.6 °F 38.1 °F 35.6 °F 71% 29.57 in 10.0 mi SW 13.8 mph 24.2 mph N/A   Mostly Cloudy
9:56 AM 45.0 °F 38.5 °F 34.9 °F 68% 29.62 in 10.0 mi WSW 13.8 mph 20.7 mph N/A   Mostly Cloudy
10:25 AM 44.6 °F 38.8 °F 35.6 °F 71% 29.59 in 10.0 mi WSW 11.5 mph 19.6 mph N/A   Overcast
10:56 AM 43.9 °F 37.5 °F 34.9 °F 71% 29.66 in 10.0 mi WSW 12.7 mph 25.3 mph N/A   Overcast
11:16 AM 44.6 °F 37.2 °F 33.8 °F 66% 29.62 in 10.0 mi SW 17.3 mph 24.2 mph N/A   Overcast
11:56 AM 43.0 °F 36.0 °F 32.9 °F 68% 29.65 in 10.0 mi SW 13.8 mph 25.3 mph N/A   Overcast
12:56 PM 41.9 °F 34.6 °F 34.9 °F 76% 29.66 in 10.0 mi SW 13.8 mph 24.2 mph 0.00 in   Overcast
1:12 PM 44.6 °F 37.4 °F 33.8 °F 66% 29.61 in 10.0 mi SSW 16.1 mph - N/A   Overcast
1:38 PM 42.8 °F 36.2 °F 33.8 °F 70% 29.62 in 10.0 mi SW 12.7 mph 27.6 mph N/A   Overcast
1:56 PM 41.0 °F 33.5 °F 36.9 °F 85% 29.68 in 4.0 mi SW 13.8 mph 24.2 mph 0.01 in Rain Light Rain
2:56 PM 41.0 °F 33.5 °F 34.9 °F 79% 29.69 in 10.0 mi SW 13.8 mph 23.0 mph 0.00 in   Overcast
3:56 PM 41.0 °F 34.3 °F 34.0 °F 76% 29.71 in 10.0 mi SW 11.5 mph - N/A   Overcast
4:56 PM 41.0 °F 33.9 °F 32.9 °F 73% 29.73 in 10.0 mi WSW 12.7 mph 21.9 mph N/A   Overcast
5:49 PM 39.2 °F 32.0 °F 32.0 °F 75% 29.71 in 10.0 mi SW 11.5 mph - N/A   Overcast
5:56 PM 39.9 °F 31.4 °F 32.0 °F 73% 29.76 in 10.0 mi SW 16.1 mph 21.9 mph N/A   Overcast
6:09 PM 39.2 °F 32.0 °F 32.0 °F 75% 29.72 in 10.0 mi SW 11.5 mph 18.4 mph 0.00 in Rain Light Rain
6:56 PM 39.9 °F 33.9 °F 32.9 °F 76% 29.79 in 10.0 mi SW 9.2 mph - 0.00 in Rain Light Rain
7:29 PM 39.2 °F 32.5 °F 32.0 °F 75% 29.75 in 10.0 mi WSW 10.4 mph 19.6 mph 0.00 in   Overcast
7:56 PM 39.9 °F 31.1 °F 32.0 °F 73% 29.81 in 8.0 mi West 17.3 mph 23.0 mph 0.00 in Rain Light Rain
7:59 PM 39.2 °F 32.0 °F 33.8 °F 81% 29.78 in 8.0 mi West 11.5 mph 23.0 mph 0.00 in Rain Light Rain
8:09 PM 39.2 °F 32.0 °F 33.8 °F 81% 29.78 in 10.0 mi West 11.5 mph 19.6 mph 0.00 in Rain Light Rain
8:56 PM 39.9 °F 34.5 °F 32.0 °F 73% 29.83 in 10.0 mi WSW 8.1 mph - 0.00 in   Overcast
9:56 PM 39.9 °F 32.1 °F 30.0 °F 68% 29.85 in 10.0 mi West 13.8 mph 19.6 mph N/A   Mostly Cloudy
10:56 PM 39.9 °F 32.9 °F 31.1 °F 71% 29.86 in 10.0 mi West 11.5 mph - N/A   Overcast
11:56 PM 38.8 °F 32.1 °F 30.0 °F 71% 29.88 in 10.0 mi WSW 10.4 mph - N/A   Overcast